Home > Time Zones > World Clock > Weather > Norway > Alta > Past weeks

Flag for Norway Weather past 2 weeks in Alta, Norway

Now
55 °F

Cool.


Feels Like: 54 °F
Forecast: 50 / 64 °F
Wind: 6 mph from South

Location: Alta Lufthavn

Current Time: Aug 29, 2015 at 9:15:57 PM

Latest Report: Aug 29, 2015 at 8:00 PM


Visibility: N/A

Pressure: 29.62 "Hg

Humidity: 78%

Dew point: 49 °F

Location of AltaLocation

Historic Weather in Alta — Graph

°F

Alta temperature yesterday

Maximum temperature yesterday: 59 °F (at 6:00 PM)
Minimum temperature yesterday: 55 °F (at 3:00 AM)
Average temperature yesterday: 57 °F

Past Weeks' High & Low Weather Summary

 TemperatureHumidityPressure
High71 °F (Aug 16, 4:00 PM)96% (Aug 24, 2:00 AM)30.34 "Hg (Aug 24, 2:00 AM)
Low45 °F (Aug 21, 4:00 AM)42% (Aug 16, 3:00 PM)29.59 "Hg (Aug 29, 11:00 AM)
Average57 °F74%30.13 "Hg
* Reported Aug 14 8:00 PM — Aug 29 8:00 PM, Alta, Weather by CustomWeather, © 2015

Note: Actual official high and low records may vary slightly from our data, if they occured in-between our weather recording intervals... More about our weather records

Advertising

Alta weather history for previous 24 hours

 ConditionsComfort  
Time TempWeatherWind HumidityBarometerVisibility
8:00 PM
Sat, Aug 29
55 °FCool.6 mph78%29.62 "HgN/A
6:00 PM57 °FCool.6 mph72%29.61 "HgN/A
5:00 PM56 °FCool.8 mph73%29.61 "HgN/A
4:00 PM57 °FCool.8 mph72%29.60 "HgN/A
2:00 PM57 °FCool.10 mph70%29.60 "HgN/A
11:00 AM56 °FCool.9 mph67%29.59 "HgN/A
10:00 AM54 °FCool.6 mph75%29.59 "HgN/A
9:00 AM52 °FCool.2 mph80%29.59 "HgN/A
8:00 AM50 °FCool.2 mph87%29.60 "HgN/A
7:00 AM51 °FCool.2 mph83%29.60 "HgN/A
6:00 AM51 °FCool.3 mph80%29.61 "HgN/A
3:00 AM51 °FCool.6 mph77%29.62 "HgN/A
2:00 AM53 °FCool.6 mph72%29.62 "HgN/A
1:00 AM54 °FCool.6 mph71%29.62 "HgN/A
11:00 PM
Fri, Aug 28
57 °FCool.5 mph68%29.64 "HgN/A
9:00 PM58 °FCool.3 mph66%29.66 "HgN/A
Weather by CustomWeather, © 2015

See weather overviewHow to use our weather pages